^^
Station Historical Data
Daily Summary for January 23, 2017 Units:  English    Metric   Both
« Previous Day
Next Day »
Daily Weekly Monthly Yearly Custom
  High: Low: Average:
Temperature: 45.6 °F 34.4 °F 38.7 °F
Dew Point: 43.4 °F 31.8 °F 35.3 °F
Humidity: 93 % 74 % 88 %
Wind Speed: 16.1 mph 3.0 mph 8.7 mph
Wind Gust: 25.3 mph - -
Wind:- - ENE
Pressure: 29.77 in 29.49 in -
Precipitation: 0.59 in    
Historical Graphs
 
 
Tabular Data for January 23, 2017
Time Temperature Dew Point Pressure Wind Wind Speed Wind Gust Humidity Rainfall Rate (Hourly) solar Conditions
00:04 45.6 °F 43.4 °F 29.75 in ENE 7.0 mph 11.0 mph 92 % 0.00 in 0.0 W/m2 OVC
00:09 45.5 °F 43.0 °F 29.76 in ENE 5.0 mph 14.0 mph 91 % 0.00 in 0.0 W/m2 OVC
00:14 45.3 °F 42.8 °F 29.76 in ENE 7.0 mph 18.0 mph 91 % 0.00 in 0.0 W/m2 OVC
00:19 45.2 °F 42.7 °F 29.76 in ENE 8.0 mph 16.0 mph 91 % 0.00 in 0.0 W/m2 OVC
00:24 45.0 °F 42.5 °F 29.76 in ENE 6.0 mph 14.0 mph 91 % 0.00 in 0.0 W/m2 OVC
00:29 45.0 °F 42.2 °F 29.76 in East 3.0 mph 11.0 mph 90 % 0.00 in 0.0 W/m2 OVC
00:34 45.0 °F 42.2 °F 29.76 in East 5.0 mph 9.0 mph 90 % 0.00 in 0.0 W/m2 OVC
00:39 44.9 °F 42.1 °F 29.76 in ENE 8.0 mph 15.0 mph 90 % 0.00 in 0.0 W/m2 OVC
00:44 44.8 °F 42.0 °F 29.76 in ENE 6.0 mph 15.0 mph 90 % 0.00 in 0.0 W/m2 OVC
00:49 44.8 °F 42.0 °F 29.77 in East 3.0 mph 11.0 mph 90 % 0.00 in 0.0 W/m2 OVC
00:54 44.7 °F 41.7 °F 29.77 in East 5.0 mph 9.0 mph 89 % 0.00 in 0.0 W/m2 OVC
00:59 44.7 °F 41.7 °F 29.76 in ENE 6.0 mph 12.0 mph 89 % 0.00 in 0.0 W/m2 OVC
01:04 44.6 °F 41.6 °F 29.76 in ENE 8.0 mph 14.0 mph 89 % 0.00 in 0.0 W/m2 OVC
01:09 44.5 °F 41.5 °F 29.77 in ENE 7.0 mph 12.0 mph 89 % 0.00 in 0.0 W/m2 OVC
01:14 44.5 °F 41.5 °F 29.76 in East 7.0 mph 12.0 mph 89 % 0.00 in 0.0 W/m2 OVC
01:19 44.4 °F 41.4 °F 29.76 in ENE 3.0 mph 14.0 mph 89 % 0.00 in 0.0 W/m2 OVC
01:24 44.3 °F 41.3 °F 29.76 in ENE 8.0 mph 13.0 mph 89 % 0.00 in 0.0 W/m2 OVC
01:29 44.2 °F 40.9 °F 29.76 in ENE 9.0 mph 13.0 mph 88 % 0.00 in 0.0 W/m2 OVC
01:34 44.2 °F 40.9 °F 29.76 in ENE 9.0 mph 13.0 mph 88 % 0.00 in 0.0 W/m2 OVC
01:39 44.0 °F 40.7 °F 29.76 in ENE 9.0 mph 12.0 mph 88 % 0.00 in 0.0 W/m2 OVC
01:44 43.9 °F 40.6 °F 29.75 in ENE 9.0 mph 14.0 mph 88 % 0.00 in 0.0 W/m2 OVC
01:49 43.8 °F 40.5 °F 29.76 in ENE 7.0 mph 19.0 mph 88 % 0.00 in 0.0 W/m2 OVC
01:54 43.7 °F 40.4 °F 29.76 in ENE 7.0 mph 19.0 mph 88 % 0.00 in 0.0 W/m2 OVC
01:59 43.7 °F 40.4 °F 29.76 in ENE 6.0 mph 11.0 mph 88 % 0.00 in 0.0 W/m2 OVC
02:04 43.6 °F 40.3 °F 29.76 in ENE 6.0 mph 14.0 mph 88 % 0.00 in 0.0 W/m2 OVC
02:09 43.6 °F 40.3 °F 29.76 in ENE 6.0 mph 12.0 mph 88 % 0.00 in 0.0 W/m2 OVC
02:14 43.6 °F 40.3 °F 29.76 in ENE 5.0 mph 12.0 mph 88 % 0.00 in 0.0 W/m2 OVC
02:19 43.6 °F 40.3 °F 29.76 in ENE 9.0 mph 15.0 mph 88 % 0.00 in 0.0 W/m2 OVC
02:24 43.6 °F 40.3 °F 29.77 in ENE 8.0 mph 15.0 mph 88 % 0.00 in 0.0 W/m2 OVC
02:29 43.5 °F 40.2 °F 29.77 in ENE 9.0 mph 16.0 mph 88 % 0.00 in 0.0 W/m2 OVC
02:34 43.5 °F 40.2 °F 29.77 in ENE 5.0 mph 13.0 mph 88 % 0.00 in 0.0 W/m2 OVC
02:39 43.5 °F 40.2 °F 29.77 in ENE 7.0 mph 12.0 mph 88 % 0.00 in 0.0 W/m2 OVC
02:44 43.5 °F 40.2 °F 29.76 in ENE 7.0 mph 11.0 mph 88 % 0.00 in 0.0 W/m2 OVC
02:49 43.4 °F 40.1 °F 29.76 in ENE 5.0 mph 14.0 mph 88 % 0.00 in 0.0 W/m2 OVC
02:54 43.4 °F 40.1 °F 29.76 in ENE 6.0 mph 14.0 mph 88 % 0.00 in 0.0 W/m2 OVC
02:59 43.4 °F 40.1 °F 29.77 in ENE 6.0 mph 9.0 mph 88 % 0.00 in 0.0 W/m2 OVC
03:04 43.3 °F 40.0 °F 29.77 in ENE 10.0 mph 15.0 mph 88 % 0.00 in 0.0 W/m2 OVC
03:09 43.3 °F 40.0 °F 29.77 in ENE 7.0 mph 19.0 mph 88 % 0.00 in 0.0 W/m2 OVC
03:14 43.2 °F 39.9 °F 29.77 in ENE 8.0 mph 14.0 mph 88 % 0.00 in 0.0 W/m2 OVC
03:19 43.2 °F 39.9 °F 29.77 in ENE 3.0 mph 9.0 mph 88 % 0.00 in 0.0 W/m2 OVC
03:24 43.1 °F 39.8 °F 29.76 in ENE 5.0 mph 15.0 mph 88 % 0.00 in 0.0 W/m2 OVC
03:29 43.1 °F 39.8 °F 29.76 in ENE 9.0 mph 16.0 mph 88 % 0.00 in 0.0 W/m2 OVC
03:34 43.0 °F 39.7 °F 29.77 in ENE 9.0 mph 18.0 mph 88 % 0.00 in 0.0 W/m2 OVC
03:39 42.9 °F 39.6 °F 29.76 in ENE 12.0 mph 15.0 mph 88 % 0.00 in 0.0 W/m2 OVC
03:44 42.8 °F 39.5 °F 29.76 in ENE 6.0 mph 14.0 mph 88 % 0.00 in 0.0 W/m2 OVC
03:49 42.8 °F 39.5 °F 29.76 in ENE 8.0 mph 15.0 mph 88 % 0.00 in 0.0 W/m2 OVC
03:54 42.7 °F 39.4 °F 29.76 in ENE 8.0 mph 17.0 mph 88 % 0.00 in 0.0 W/m2 OVC
03:59 42.7 °F 39.4 °F 29.76 in ENE 7.0 mph 22.0 mph 88 % 0.00 in 0.0 W/m2 OVC
04:04 42.6 °F 39.3 °F 29.76 in ENE 8.0 mph 15.0 mph 88 % 0.00 in 0.0 W/m2 OVC
04:09 42.6 °F 39.3 °F 29.76 in East 5.0 mph 14.0 mph 88 % 0.00 in 0.0 W/m2 OVC
04:14 42.6 °F 39.3 °F 29.76 in ENE 10.0 mph 17.0 mph 88 % 0.00 in 0.0 W/m2 OVC
04:19 42.5 °F 39.2 °F 29.76 in ENE 8.0 mph 16.0 mph 88 % 0.00 in 0.0 W/m2 OVC
04:24 42.4 °F 39.1 °F 29.76 in ENE 6.0 mph 13.0 mph 88 % 0.00 in 0.0 W/m2 OVC
04:29 42.3 °F 39.0 °F 29.75 in ENE 8.0 mph 14.0 mph 88 % 0.00 in 0.0 W/m2 OVC
04:34 42.2 °F 38.9 °F 29.75 in NE 7.0 mph 13.0 mph 88 % 0.00 in 0.0 W/m2 OVC
04:39 42.1 °F 38.8 °F 29.74 in ENE 7.0 mph 17.0 mph 88 % 0.00 in 0.0 W/m2 OVC
04:44 42.1 °F 38.8 °F 29.75 in ENE 6.0 mph 23.0 mph 88 % 0.00 in 0.0 W/m2 OVC
04:49 42.0 °F 38.7 °F 29.75 in ENE 7.0 mph 17.0 mph 88 % 0.00 in 0.0 W/m2 OVC
04:54 42.0 °F 38.7 °F 29.75 in ENE 3.0 mph 12.0 mph 88 % 0.00 in 0.0 W/m2 OVC
04:59 42.0 °F 38.7 °F 29.75 in ENE 7.0 mph 12.0 mph 88 % 0.00 in 0.0 W/m2 OVC
05:04 42.0 °F 38.7 °F 29.75 in ENE 8.0 mph 19.0 mph 88 % 0.00 in 0.0 W/m2 OVC
05:09 42.0 °F 38.7 °F 29.75 in ENE 6.0 mph 11.0 mph 88 % 0.00 in 0.0 W/m2 OVC
05:14 42.0 °F 38.7 °F 29.76 in ENE 7.0 mph 15.0 mph 88 % 0.00 in 0.0 W/m2 OVC
05:19 42.0 °F 38.7 °F 29.76 in ENE 8.0 mph 15.0 mph 88 % 0.00 in 0.0 W/m2 OVC
05:24 41.9 °F 38.3 °F 29.77 in East 7.0 mph 12.0 mph 87 % 0.00 in 0.0 W/m2 OVC
05:29 41.8 °F 38.5 °F 29.77 in ENE 7.0 mph 18.0 mph 88 % 0.00 in 0.0 W/m2 OVC
05:34 41.7 °F 38.4 °F 29.75 in ENE 6.0 mph 18.0 mph 88 % 0.00 in 0.0 W/m2 OVC
05:39 41.6 °F 38.3 °F 29.76 in ENE 8.0 mph 14.0 mph 88 % 0.00 in 0.0 W/m2 OVC
05:44 41.6 °F 38.3 °F 29.76 in ENE 6.0 mph 10.0 mph 88 % 0.00 in 0.0 W/m2 OVC
05:49 41.5 °F 38.2 °F 29.76 in ENE 6.0 mph 12.0 mph 88 % 0.00 in 0.0 W/m2 OVC
05:54 41.5 °F 38.2 °F 29.76 in ENE 7.0 mph 14.0 mph 88 % 0.00 in 0.0 W/m2 OVC
05:59 41.5 °F 38.2 °F 29.76 in ENE 8.0 mph 13.0 mph 88 % 0.00 in 0.0 W/m2 OVC
06:04 41.3 °F 38.0 °F 29.75 in ENE 9.0 mph 14.0 mph 88 % 0.00 in 0.0 W/m2 OVC
06:09 41.2 °F 37.9 °F 29.75 in ENE 8.0 mph 16.0 mph 88 % 0.00 in 0.0 W/m2 OVC
06:14 41.1 °F 38.1 °F 29.75 in ENE 5.0 mph 18.0 mph 89 % 0.00 in 0.0 W/m2 OVC
06:19 41.0 °F 38.0 °F 29.75 in ENE 8.0 mph 20.0 mph 89 % 0.00 in 0.0 W/m2 OVC
06:24 40.9 °F 37.9 °F 29.75 in ENE 8.0 mph 15.0 mph 89 % 0.00 in 0.0 W/m2 OVC
06:29 40.8 °F 37.8 °F 29.75 in ENE 7.0 mph 15.0 mph 89 % 0.00 in 0.0 W/m2 OVC
06:34 40.8 °F 37.8 °F 29.75 in ENE 7.0 mph 22.0 mph 89 % 0.00 in 0.0 W/m2 OVC
06:39 40.8 °F 37.8 °F 29.74 in ENE 12.0 mph 16.0 mph 89 % 0.00 in 0.0 W/m2 OVC
06:44 40.8 °F 37.8 °F 29.75 in ENE 7.0 mph 16.0 mph 89 % 0.00 in 0.0 W/m2 OVC
06:49 40.8 °F 37.8 °F 29.75 in ENE 6.0 mph 19.0 mph 89 % 0.00 in 0.0 W/m2 OVC
06:54 40.8 °F 37.8 °F 29.75 in ENE 8.0 mph 18.0 mph 89 % 0.00 in 0.0 W/m2 OVC
06:59 40.8 °F 37.5 °F 29.75 in ENE 5.0 mph 11.0 mph 88 % 0.00 in 0.0 W/m2 OVC
07:04 40.8 °F 37.5 °F 29.75 in ENE 5.0 mph 14.0 mph 88 % 0.00 in 0.0 W/m2 OVC
07:09 40.8 °F 37.5 °F 29.75 in ENE 8.0 mph 14.0 mph 88 % 0.00 in 0.0 W/m2 OVC
07:14 40.8 °F 37.5 °F 29.75 in ENE 7.0 mph 12.0 mph 88 % 0.00 in 0.0 W/m2 OVC
07:19 40.7 °F 37.4 °F 29.75 in ENE 8.0 mph 20.0 mph 88 % 0.00 in 0.0 W/m2 OVC
07:24 40.7 °F 37.4 °F 29.75 in ENE 6.0 mph 15.0 mph 88 % 0.00 in 0.0 W/m2 OVC
07:29 40.6 °F 37.3 °F 29.75 in ENE 6.0 mph 16.0 mph 88 % 0.00 in 0.0 W/m2 OVC
07:34 40.5 °F 37.2 °F 29.74 in ENE 12.0 mph 18.0 mph 88 % 0.00 in 0.0 W/m2 OVC
07:39 40.5 °F 37.2 °F 29.74 in ENE 7.0 mph 14.0 mph 88 % 0.00 in 0.0 W/m2 OVC
07:44 40.6 °F 37.0 °F 29.73 in ENE 10.0 mph 19.0 mph 87 % 0.00 in 0.0 W/m2 OVC
07:49 40.6 °F 37.0 °F 29.74 in ENE 10.0 mph 16.0 mph 87 % 0.00 in 5.0 W/m2 OVC
07:54 40.6 °F 36.7 °F 29.74 in ENE 8.0 mph 15.0 mph 86 % 0.00 in 7.0 W/m2 OVC
07:59 40.6 °F 36.7 °F 29.74 in ENE 9.0 mph 14.0 mph 86 % 0.00 in 6.0 W/m2 OVC
08:04 40.7 °F 36.5 °F 29.74 in ENE 9.0 mph 17.0 mph 85 % 0.00 in 7.0 W/m2 OVC
08:18 40.7 °F 36.5 °F 29.74 in East 3.0 mph 11.0 mph 85 % 0.00 in 12.0 W/m2 CLR
08:23 40.6 °F 36.1 °F 29.75 in ENE 10.8 mph 13.8 mph 84 % 0.00 in 11.0 W/m2 OVC
08:28 40.7 °F 36.2 °F 29.75 in ESE 9.8 mph 15.0 mph 84 % 0.00 in 11.0 W/m2 OVC
08:33 40.6 °F 36.1 °F 29.75 in East 7.7 mph 11.5 mph 84 % 0.00 in 9.0 W/m2 OVC
08:38 40.6 °F 36.1 °F 29.76 in ENE 8.7 mph 10.4 mph 84 % 0.00 in 11.0 W/m2 OVC
08:43 40.6 °F 36.1 °F 29.76 in East 8.7 mph 10.4 mph 84 % 0.00 in 12.0 W/m2 OVC
08:48 40.6 °F 36.1 °F 29.75 in ENE 8.0 mph 12.7 mph 84 % 0.00 in 14.0 W/m2 OVC
08:53 40.5 °F 36.0 °F 29.75 in ENE 6.2 mph 10.0 mph 84 % 0.00 in 16.0 W/m2 OVC
08:58 40.6 °F 36.1 °F 29.75 in East 7.5 mph 11.5 mph 84 % 0.00 in 16.0 W/m2 OVC
09:03 40.6 °F 36.1 °F 29.75 in ENE 7.9 mph 16.1 mph 84 % 0.00 in 14.0 W/m2 OVC
09:08 40.6 °F 36.1 °F 29.75 in ENE 7.2 mph 12.7 mph 84 % 0.00 in 16.0 W/m2 OVC
09:13 40.5 °F 36.0 °F 29.75 in ENE 7.6 mph 15.0 mph 84 % 0.00 in 18.0 W/m2 OVC
09:18 40.4 °F 35.9 °F 29.75 in NE 10.3 mph 16.1 mph 84 % 0.00 in 16.0 W/m2 OVC
09:23 40.4 °F 35.9 °F 29.75 in NE 7.9 mph 12.0 mph 84 % 0.00 in 18.0 W/m2 OVC
09:28 40.3 °F 35.8 °F 29.75 in ENE 7.6 mph 11.5 mph 84 % 0.00 in 21.0 W/m2 OVC
09:33 40.2 °F 35.8 °F 29.75 in ENE 10.7 mph 19.6 mph 84 % 0.00 in 21.0 W/m2 OVC
09:38 40.0 °F 35.9 °F 29.75 in NE 7.5 mph 13.8 mph 85 % 0.00 in 21.0 W/m2 OVC
09:43 39.9 °F 35.8 °F 29.76 in ENE 4.4 mph 6.9 mph 85 % 0.00 in 21.0 W/m2 OVC
09:49 39.8 °F 36.0 °F 29.76 in East 5.9 mph 12.7 mph 86 % 0.00 in 26.0 W/m2 OVC
09:54 39.5 °F 35.7 °F 29.76 in East 5.4 mph 11.5 mph 86 % 0.00 in 26.0 W/m2 OVC
09:59 39.4 °F 35.6 °F 29.76 in ENE 5.4 mph 11.5 mph 86 % 0.00 in 42.0 W/m2 OVC
10:04 39.3 °F 35.2 °F 29.76 in ENE 8.3 mph 18.4 mph 85 % 0.00 in 33.0 W/m2 OVC
10:09 39.2 °F 34.8 °F 29.76 in ENE 8.5 mph 11.5 mph 84 % 0.00 in 33.0 W/m2 OVC
10:14 39.3 °F 34.6 °F 29.76 in NE 5.3 mph 9.2 mph 83 % 0.00 in 47.0 W/m2 OVC
10:19 39.5 °F 34.8 °F 29.76 in NE 6.9 mph 13.8 mph 83 % 0.00 in 65.0 W/m2 OVC
10:24 39.5 °F 34.8 °F 29.76 in ESE 6.6 mph 10.4 mph 83 % 0.00 in 54.0 W/m2 OVC
10:29 39.5 °F 34.5 °F 29.75 in East 5.0 mph 11.5 mph 82 % 0.00 in 76.0 W/m2 OVC
10:34 39.5 °F 34.5 °F 29.74 in ENE 6.6 mph 11.5 mph 82 % 0.00 in 111.0 W/m2 BKN
10:39 39.5 °F 34.2 °F 29.74 in NE 9.5 mph 15.0 mph 81 % 0.00 in 100.0 W/m2 BKN
10:44 39.5 °F 34.2 °F 29.73 in ENE 7.1 mph 15.0 mph 81 % 0.00 in 90.0 W/m2 OVC
10:49 39.3 °F 34.0 °F 29.72 in East 10.0 mph 18.4 mph 81 % 0.00 in 100.0 W/m2 BKN
10:54 39.3 °F 34.0 °F 29.72 in ENE 8.9 mph 11.5 mph 81 % 0.00 in 72.0 W/m2 OVC
10:59 39.3 °F 34.0 °F 29.73 in ENE 11.8 mph 17.3 mph 81 % 0.00 in 63.0 W/m2 OVC
11:04 39.3 °F 34.0 °F 29.72 in NE 12.7 mph 23.0 mph 81 % 0.00 in 88.0 W/m2 OVC
11:09 39.3 °F 33.6 °F 29.71 in ENE 13.5 mph 25.3 mph 80 % 0.00 in 84.0 W/m2 OVC
11:14 39.4 °F 33.4 °F 29.70 in NNE 12.0 mph 18.4 mph 79 % 0.00 in 86.0 W/m2 OVC
11:19 39.4 °F 33.4 °F 29.70 in ENE 11.8 mph 18.4 mph 79 % 0.00 in 86.0 W/m2 OVC
11:24 39.5 °F 33.2 °F 29.70 in ENE 10.2 mph 17.3 mph 78 % 0.00 in 79.0 W/m2 OVC
11:29 39.4 °F 33.1 °F 29.69 in NNE 8.7 mph 16.1 mph 78 % 0.00 in 81.0 W/m2 OVC
11:34 39.4 °F 33.1 °F 29.69 in ENE 13.1 mph 18.4 mph 78 % 0.00 in 84.0 W/m2 OVC
11:39 39.5 °F 32.9 °F 29.68 in NE 9.4 mph 15.0 mph 77 % 0.00 in 102.0 W/m2 OVC
11:44 39.5 °F 32.9 °F 29.67 in North 13.6 mph 21.9 mph 77 % 0.00 in 111.0 W/m2 OVC
11:49 39.5 °F 32.9 °F 29.67 in NE 5.2 mph 11.5 mph 77 % 0.00 in 97.0 W/m2 OVC
11:54 39.5 °F 32.6 °F 29.67 in ENE 11.9 mph 14.0 mph 76 % 0.00 in 120.0 W/m2 OVC
11:59 39.6 °F 32.7 °F 29.67 in ENE 9.2 mph 18.4 mph 76 % 0.00 in 97.0 W/m2 OVC
12:04 39.6 °F 32.7 °F 29.67 in NE 7.2 mph 17.3 mph 76 % 0.00 in 72.0 W/m2 OVC
12:09 39.6 °F 32.3 °F 29.67 in NE 11.5 mph 18.4 mph 75 % 0.00 in 63.0 W/m2 OVC
12:14 39.5 °F 32.2 °F 29.67 in ENE 11.5 mph 13.8 mph 75 % 0.00 in 56.0 W/m2 OVC
12:19 39.4 °F 31.8 °F 29.66 in ENE 10.7 mph 19.6 mph 74 % 0.00 in 63.0 W/m2 OVC
12:24 39.5 °F 31.9 °F 29.66 in East 8.7 mph 12.7 mph 74 % 0.00 in 74.0 W/m2 OVC
12:29 39.4 °F 32.1 °F 29.65 in NE 12.9 mph 18.4 mph 75 % 0.00 in 81.0 W/m2 OVC
12:34 39.3 °F 32.4 °F 29.65 in NE 10.2 mph 15.0 mph 76 % 0.00 in 88.0 W/m2 OVC
12:39 39.1 °F 32.5 °F 29.66 in East 10.2 mph 15.0 mph 77 % 0.00 in 70.0 W/m2 OVC
12:44 38.8 °F 32.5 °F 29.65 in ENE 10.1 mph 16.1 mph 78 % 0.00 in 63.0 W/m2 OVC
12:49 38.5 °F 32.9 °F 29.65 in NE 8.8 mph 12.7 mph 80 % 0.01 in 56.0 W/m2 RA
12:54 38.2 °F 32.9 °F 29.64 in NE 14.0 mph 25.3 mph 81 % 0.01 in 54.0 W/m2 RA
12:57 38.1 °F 32.8 °F 29.64 in ENE 10.1 mph 15.0 mph 81 % 0.01 in 54.0 W/m2 RA
13:02 38.0 °F 33.0 °F 29.64 in NE 8.7 mph 15.0 mph 82 % 0.01 in 51.0 W/m2 OVC
13:07 37.9 °F 32.9 °F 29.64 in ENE 11.9 mph 17.3 mph 82 % 0.01 in 42.0 W/m2 OVC
13:12 37.9 °F 32.9 °F 29.64 in NNE 9.9 mph 13.0 mph 82 % 0.01 in 33.0 W/m2 OVC
13:17 38.0 °F 32.7 °F 29.65 in NE 8.2 mph 11.5 mph 81 % 0.01 in 23.0 W/m2 OVC
13:22 38.1 °F 32.8 °F 29.65 in ESE 10.6 mph 16.1 mph 81 % 0.01 in 18.0 W/m2 OVC
13:27 38.1 °F 32.5 °F 29.65 in NE 7.5 mph 13.0 mph 80 % 0.01 in 19.0 W/m2 OVC
13:32 38.2 °F 32.6 °F 29.65 in ENE 9.3 mph 17.3 mph 80 % 0.01 in 25.0 W/m2 OVC
13:37 38.2 °F 32.6 °F 29.64 in NE 7.0 mph 17.3 mph 80 % 0.01 in 28.0 W/m2 OVC
13:42 38.2 °F 32.6 °F 29.64 in ENE 8.4 mph 12.7 mph 80 % 0.01 in 33.0 W/m2 OVC
13:47 38.1 °F 32.5 °F 29.63 in ENE 10.9 mph 15.0 mph 80 % 0.01 in 37.0 W/m2 OVC
13:52 38.1 °F 32.5 °F 29.62 in NE 9.6 mph 12.7 mph 80 % 0.00 in 37.0 W/m2 OVC
13:57 38.0 °F 32.7 °F 29.63 in NE 7.6 mph 13.0 mph 81 % 0.00 in 37.0 W/m2 OVC
14:02 38.0 °F 32.7 °F 29.62 in NE 5.8 mph 12.7 mph 81 % 0.00 in 35.0 W/m2 OVC
14:07 38.0 °F 33.0 °F 29.62 in ENE 8.3 mph 15.0 mph 82 % 0.00 in 26.0 W/m2 OVC
14:12 37.8 °F 32.8 °F 29.62 in NE 6.4 mph 11.5 mph 82 % 0.00 in 26.0 W/m2 OVC
14:17 37.6 °F 32.9 °F 29.62 in NNE 16.1 mph 23.0 mph 83 % 0.01 in 28.0 W/m2 RA
14:22 37.4 °F 32.7 °F 29.61 in NE 8.8 mph 21.9 mph 83 % 0.01 in 30.0 W/m2 RA
14:27 37.3 °F 32.9 °F 29.62 in ENE 10.0 mph 13.8 mph 84 % 0.01 in 25.0 W/m2 OVC
14:32 37.2 °F 32.8 °F 29.62 in ENE 7.9 mph 11.5 mph 84 % 0.01 in 19.0 W/m2 OVC
14:37 37.2 °F 32.8 °F 29.62 in East 6.7 mph 11.5 mph 84 % 0.01 in 16.0 W/m2 OVC
14:42 37.1 °F 33.0 °F 29.62 in NE 9.9 mph 11.5 mph 85 % 0.01 in 14.0 W/m2 OVC
14:47 37.0 °F 32.9 °F 29.62 in ENE 8.2 mph 13.8 mph 85 % 0.02 in 12.0 W/m2 RA
14:52 36.9 °F 32.8 °F 29.62 in NNE 10.1 mph 16.1 mph 85 % 0.03 in 14.0 W/m2 RA
14:57 36.7 °F 32.9 °F 29.61 in ENE 9.3 mph 11.5 mph 86 % 0.03 in 12.0 W/m2 RA
15:02 36.5 °F 32.7 °F 29.62 in ENE 6.7 mph 18.4 mph 86 % 0.05 in 11.0 W/m2 RA
15:07 36.3 °F 32.8 °F 29.61 in NE 8.6 mph 18.4 mph 87 % 0.06 in 11.0 W/m2 RA
15:12 36.1 °F 32.9 °F 29.61 in NE 15.0 mph 15.0 mph 88 % 0.07 in 9.0 W/m2 RA
15:17 35.9 °F 32.7 °F 29.60 in NNE 13.6 mph 17.0 mph 88 % 0.07 in 9.0 W/m2 RA
15:22 35.7 °F 32.8 °F 29.61 in East 9.5 mph 13.8 mph 89 % 0.08 in 7.0 W/m2 RA
15:27 35.6 °F 32.7 °F 29.62 in NNE 6.1 mph 11.5 mph 89 % 0.09 in 7.0 W/m2 RA
15:32 35.6 °F 32.7 °F 29.62 in NE 8.4 mph 11.5 mph 89 % 0.10 in 5.0 W/m2 RA
15:37 35.5 °F 32.9 °F 29.62 in NE 10.5 mph 18.4 mph 90 % 0.12 in 5.0 W/m2 RA
15:42 35.4 °F 32.8 °F 29.62 in NE 11.3 mph 18.4 mph 90 % 0.15 in 0.0 W/m2 RA
15:47 35.4 °F 32.8 °F 29.61 in NNE 11.0 mph 19.6 mph 90 % 0.15 in 5.0 W/m2 RA
15:52 35.2 °F 32.6 °F 29.60 in NE 11.0 mph 19.6 mph 90 % 0.16 in 7.0 W/m2 RA
15:57 35.1 °F 32.7 °F 29.61 in NNE 10.9 mph 16.1 mph 91 % 0.18 in 9.0 W/m2 RA
16:03 35.1 °F 32.7 °F 29.61 in NE 12.3 mph 17.3 mph 91 % 0.17 in 9.0 W/m2 RA
16:08 35.0 °F 32.6 °F 29.60 in NE 11.8 mph 20.7 mph 91 % 0.17 in 9.0 W/m2 RA
16:13 35.0 °F 32.6 °F 29.59 in NE 13.6 mph 16.1 mph 91 % 0.17 in 7.0 W/m2 RA
16:18 35.0 °F 32.6 °F 29.59 in NE 11.5 mph 15.0 mph 91 % 0.15 in 9.0 W/m2 RA
16:23 35.0 °F 32.6 °F 29.60 in NNE 8.4 mph 17.3 mph 91 % 0.15 in 7.0 W/m2
16:29 35.0 °F 32.6 °F 29.61 in NE 9.4 mph 15.0 mph 91 % 0.15 in 7.0 W/m2 RA
16:34 35.0 °F 32.6 °F 29.62 in ENE 5.4 mph 10.4 mph 91 % 0.14 in 0.0 W/m2 RA
16:39 35.0 °F 32.6 °F 29.63 in ENE 8.4 mph 11.5 mph 91 % 0.13 in 0.0 W/m2 RA
16:44 35.0 °F 32.9 °F 29.64 in ENE 6.7 mph 11.5 mph 92 % 0.10 in 0.0 W/m2 RA
16:49 35.1 °F 33.0 °F 29.64 in NE 5.9 mph 15.0 mph 92 % 0.08 in 0.0 W/m2
16:54 35.1 °F 33.0 °F 29.63 in NE 7.1 mph 11.5 mph 92 % 0.07 in 5.0 W/m2 RA
16:59 35.0 °F 32.9 °F 29.63 in NE 7.8 mph 14.0 mph 92 % 0.06 in 9.0 W/m2 RA
17:04 35.0 °F 32.9 °F 29.63 in NNE 6.6 mph 11.5 mph 92 % 0.06 in 5.0 W/m2 RA
17:09 34.9 °F 32.8 °F 29.63 in NE 6.0 mph 11.5 mph 92 % 0.07 in 0.0 W/m2 RA
17:14 34.8 °F 32.7 °F 29.62 in ENE 9.8 mph 13.8 mph 92 % 0.06 in 0.0 W/m2 RA
17:19 34.8 °F 32.7 °F 29.62 in NNE 12.4 mph 19.6 mph 92 % 0.08 in 0.0 W/m2 RA
17:24 34.7 °F 32.6 °F 29.62 in NE 9.2 mph 12.7 mph 92 % 0.09 in 0.0 W/m2 RA
17:29 34.6 °F 32.5 °F 29.61 in NE 12.3 mph 15.0 mph 92 % 0.10 in 0.0 W/m2 RA
17:34 34.5 °F 32.4 °F 29.61 in NNE 13.3 mph 19.6 mph 92 % 0.12 in 0.0 W/m2 RA
17:39 34.5 °F 32.4 °F 29.61 in NNE 11.1 mph 17.0 mph 92 % 0.13 in 0.0 W/m2 RA
17:44 34.5 °F 32.4 °F 29.61 in NE 10.7 mph 18.0 mph 92 % 0.14 in 0.0 W/m2 RA
17:49 34.5 °F 32.4 °F 29.62 in NE 7.8 mph 15.0 mph 92 % 0.14 in 0.0 W/m2 RA
17:54 34.5 °F 32.4 °F 29.62 in NE 9.8 mph 17.3 mph 92 % 0.14 in 0.0 W/m2 RA
17:59 34.5 °F 32.4 °F 29.62 in NNE 12.5 mph 15.0 mph 92 % 0.13 in 0.0 W/m2 RA
18:04 34.5 °F 32.4 °F 29.63 in ENE 12.9 mph 16.1 mph 92 % 0.12 in 0.0 W/m2
18:09 34.5 °F 32.4 °F 29.63 in NNE 12.4 mph 19.6 mph 92 % 0.12 in 0.0 W/m2 RA
18:14 34.5 °F 32.4 °F 29.62 in NE 8.4 mph 17.3 mph 92 % 0.13 in 0.0 W/m2 RA
18:19 34.5 °F 32.4 °F 29.62 in NNE 6.4 mph 10.4 mph 92 % 0.10 in 0.0 W/m2 RA
18:24 34.4 °F 32.3 °F 29.61 in NE 12.5 mph 17.3 mph 92 % 0.09 in 0.0 W/m2
18:29 34.4 °F 32.6 °F 29.61 in NNE 11.1 mph 17.3 mph 93 % 0.08 in 0.0 W/m2 RA
18:34 34.4 °F 32.6 °F 29.61 in NNE 9.7 mph 12.0 mph 93 % 0.07 in 0.0 W/m2 RA
18:39 34.4 °F 32.6 °F 29.62 in NE 5.1 mph 12.7 mph 93 % 0.05 in 0.0 W/m2
18:44 34.5 °F 32.7 °F 29.63 in ENE 7.9 mph 16.1 mph 93 % 0.05 in 0.0 W/m2 RA
18:49 34.5 °F 32.4 °F 29.63 in NE 7.7 mph 9.2 mph 92 % 0.05 in 0.0 W/m2 RA
18:55 34.5 °F 32.4 °F 29.62 in ENE 11.3 mph 13.8 mph 92 % 0.04 in 0.0 W/m2
19:00 34.6 °F 32.5 °F 29.62 in NE 7.2 mph 11.5 mph 92 % 0.04 in 0.0 W/m2
19:05 34.6 °F 32.5 °F 29.63 in NE 6.4 mph 12.7 mph 92 % 0.04 in 0.0 W/m2
19:10 34.6 °F 32.5 °F 29.62 in NE 8.0 mph 15.0 mph 92 % 0.00 in 0.0 W/m2
19:15 34.5 °F 32.4 °F 29.62 in NE 12.0 mph 16.1 mph 92 % 0.02 in 0.0 W/m2
19:20 34.5 °F 32.4 °F 29.61 in NE 12.0 mph 21.0 mph 92 % 0.00 in 0.0 W/m2 RA
19:25 34.5 °F 32.4 °F 29.61 in NE 7.0 mph 15.0 mph 92 % 0.00 in 0.0 W/m2
19:30 34.5 °F 32.4 °F 29.61 in NE 6.4 mph 11.5 mph 92 % 0.03 in 0.0 W/m2 RA
19:35 34.5 °F 32.4 °F 29.61 in ENE 7.4 mph 13.8 mph 92 % 0.04 in 0.0 W/m2 RA
19:40 34.5 °F 32.4 °F 29.60 in ENE 11.2 mph 15.0 mph 92 % 0.04 in 0.0 W/m2 RA
19:45 34.5 °F 32.7 °F 29.60 in NE 10.1 mph 18.0 mph 93 % 0.04 in 0.0 W/m2 RA
19:50 34.5 °F 32.7 °F 29.59 in NE 10.0 mph 18.0 mph 93 % 0.02 in 0.0 W/m2 RA
19:55 34.5 °F 32.7 °F 29.60 in NE 13.0 mph 20.0 mph 93 % 0.00 in 0.0 W/m2 RA
20:00 34.5 °F 32.7 °F 29.59 in NNE 10.9 mph 17.3 mph 93 % 0.06 in 0.0 W/m2 RA
20:05 34.5 °F 32.7 °F 29.59 in NE 12.0 mph 15.0 mph 93 % 0.00 in 0.0 W/m2 RA
20:10 34.4 °F 32.6 °F 29.59 in NE 10.0 mph 17.0 mph 93 % 0.00 in 0.0 W/m2
20:15 34.5 °F 32.7 °F 29.60 in NNE 14.4 mph 19.6 mph 93 % 0.05 in 0.0 W/m2
20:20 34.5 °F 32.7 °F 29.60 in NNE 8.1 mph 13.0 mph 93 % 0.06 in 0.0 W/m2 RA
20:25 34.4 °F 32.6 °F 29.60 in ENE 12.4 mph 12.7 mph 93 % 0.06 in 0.0 W/m2 RA
20:30 34.5 °F 32.7 °F 29.60 in NE 6.3 mph 15.0 mph 93 % 0.05 in 0.0 W/m2
20:35 34.5 °F 32.7 °F 29.59 in NE 13.5 mph 13.5 mph 93 % 0.04 in 0.0 W/m2
20:40 34.5 °F 32.7 °F 29.59 in NE 5.4 mph 9.2 mph 93 % 0.04 in 0.0 W/m2
20:45 34.5 °F 32.7 °F 29.59 in NE 13.0 mph 20.7 mph 93 % 0.03 in 0.0 W/m2
20:50 34.6 °F 32.8 °F 29.59 in East 10.8 mph 15.0 mph 93 % 0.02 in 0.0 W/m2
20:55 34.6 °F 32.8 °F 29.59 in NNE 10.1 mph 12.7 mph 93 % 0.02 in 0.0 W/m2
21:00 34.7 °F 32.6 °F 29.59 in NNE 8.7 mph 11.5 mph 92 % 0.01 in 0.0 W/m2
21:05 34.7 °F 32.6 °F 29.59 in NE 6.6 mph 11.5 mph 92 % 0.01 in 0.0 W/m2
21:10 34.8 °F 32.7 °F 29.58 in NNE 11.2 mph 16.1 mph 92 % 0.01 in 0.0 W/m2
21:15 34.8 °F 32.7 °F 29.57 in NNE 8.9 mph 13.8 mph 92 % 0.01 in 0.0 W/m2
21:20 34.8 °F 32.7 °F 29.57 in NE 10.5 mph 15.0 mph 92 % 0.00 in 0.0 W/m2 CLR
21:25 34.7 °F 32.6 °F 29.57 in NNE 8.2 mph 12.7 mph 92 % 0.00 in 0.0 W/m2 CLR
21:30 34.7 °F 32.6 °F 29.57 in NNE 10.0 mph 12.7 mph 92 % 0.00 in 0.0 W/m2 CLR
21:35 34.7 °F 32.6 °F 29.57 in NE 6.5 mph 11.5 mph 92 % 0.00 in 0.0 W/m2 CLR
21:40 34.7 °F 32.6 °F 29.56 in NNE 9.4 mph 13.0 mph 92 % 0.01 in 0.0 W/m2 RA
21:45 34.7 °F 32.6 °F 29.55 in NE 11.2 mph 18.0 mph 92 % 0.01 in 0.0 W/m2 RA
21:50 34.7 °F 32.6 °F 29.55 in NNE 7.9 mph 11.5 mph 92 % 0.01 in 0.0 W/m2
21:55 34.7 °F 32.6 °F 29.55 in NNE 8.5 mph 11.5 mph 92 % 0.01 in 0.0 W/m2
22:00 34.7 °F 32.6 °F 29.55 in NNE 8.8 mph 15.0 mph 92 % 0.01 in 0.0 W/m2
22:05 34.7 °F 32.6 °F 29.54 in NE 10.9 mph 13.8 mph 92 % 0.01 in 0.0 W/m2
22:10 34.8 °F 32.7 °F 29.54 in NE 11.4 mph 16.1 mph 92 % 0.01 in 0.0 W/m2
22:15 34.9 °F 32.8 °F 29.54 in NE 10.4 mph 13.8 mph 92 % 0.01 in 0.0 W/m2
22:20 35.0 °F 32.9 °F 29.54 in NE 10.5 mph 17.3 mph 92 % 0.01 in 0.0 W/m2
22:25 35.0 °F 32.9 °F 29.54 in NE 7.3 mph 13.8 mph 92 % 0.01 in 0.0 W/m2
22:30 35.1 °F 33.0 °F 29.53 in NE 12.5 mph 19.6 mph 92 % 0.01 in 0.0 W/m2
22:35 35.1 °F 33.0 °F 29.53 in NE 6.6 mph 12.7 mph 92 % 0.01 in 0.0 W/m2
22:40 35.2 °F 33.1 °F 29.53 in NE 8.1 mph 12.7 mph 92 % 0.00 in 0.0 W/m2 CLR
22:45 35.2 °F 33.1 °F 29.53 in NE 8.6 mph 11.5 mph 92 % 0.00 in 0.0 W/m2 CLR
22:50 35.2 °F 33.1 °F 29.53 in NNE 10.7 mph 16.1 mph 92 % 0.00 in 0.0 W/m2 CLR
22:55 35.3 °F 33.2 °F 29.53 in NE 7.7 mph 13.8 mph 92 % 0.00 in 0.0 W/m2 CLR
23:00 35.3 °F 33.2 °F 29.53 in NE 12.4 mph 15.0 mph 92 % 0.00 in 0.0 W/m2 CLR
23:05 35.3 °F 32.9 °F 29.52 in ENE 11.8 mph 18.4 mph 91 % 0.00 in 0.0 W/m2 CLR
23:10 35.4 °F 33.0 °F 29.52 in NNE 9.5 mph 15.0 mph 91 % 0.00 in 0.0 W/m2 CLR
23:15 35.3 °F 32.9 °F 29.51 in NNE 10.2 mph 12.0 mph 91 % 0.00 in 0.0 W/m2 CLR
23:20 35.1 °F 33.0 °F 29.51 in NNE 10.8 mph 16.1 mph 92 % 0.00 in 0.0 W/m2 CLR
23:25 35.1 °F 33.0 °F 29.50 in NE 11.2 mph 15.0 mph 92 % 0.00 in 0.0 W/m2 CLR
23:30 35.0 °F 32.9 °F 29.50 in NE 12.2 mph 20.0 mph 92 % 0.00 in 0.0 W/m2 CLR
23:38 35.0 °F 32.9 °F 29.50 in NNE 10.5 mph 13.8 mph 92 % 0.01 in 0.0 W/m2 RA
23:43 35.0 °F 32.9 °F 29.50 in NE 10.6 mph 11.5 mph 92 % 0.01 in 0.0 W/m2
23:49 34.9 °F 32.8 °F 29.50 in NNE 10.7 mph 15.0 mph 92 % 0.02 in 0.0 W/m2 RA
23:54 34.8 °F 32.7 °F 29.49 in NE 12.5 mph 17.3 mph 92 % 0.03 in 0.0 W/m2 RA
23:59 34.8 °F 32.7 °F 29.49 in NNE 10.0 mph 15.0 mph 92 % 0.04 in 0.0 W/m2 RA
Air Products Campus Weather
Compliments of Weather Underground - 3.5 mb